Location: Cerezo de Arriba
(41.2389°N, 3.5585°W)
Time: 04:19:24
(UTC+00:00)

CZ-4C R/B - Pass Details

Date: 19 May 2025
Orbit: 425 x 537 km, 98.0° (Epoch: 23 June)

Event Time Altitude Azimuth Distance (km) Brightness Sun altitude
Rises 22:50:45 0° 9° (N) 2,587 7.7 -26.0°
Reaches altitude 10° 22:52:53 10° 6° (N) 1,679 6.6 -26.2°
Enters shadow 22:55:14 37° 351° (N) 767 4.5 -26.3°
